Regional Weather Roundup
Issued by NWS

Home | Current Version | Previous Version | Graphics & Text | Print | Product List | Glossary On
Versions: 1 2 3 4 5 6 7 8 9 10 11 12 13 14 15 16 17 18 19 20 21 22 23 24 25 26 27 28 29 30 31 32 33 34 35 36 37 38 39 40 41 42 43 44 45 46 47 48 49 50
000
ASUS45 KSLC 240910
RWRUT

UTAH REGIONAL WEATHER ROUNDUP
NATIONAL WEATHER SERVICE SALT LAKE CITY UT
200 AM MST SAT JAN 24 2015

UTZ001>011-023>025-241000-

NORTHERN UTAH

CITY           SKY/WX    TMP DP  RH WIND       PRES   REMARKS
BRIGHAM CITY   CLEAR     27  23  84 NW5       30.51R WCI  22
HILL AFB       CLEAR     26  17  67 E8        30.49R WCI  18
LOGAN          CLEAR     23  19  85 CALM      30.50R
OGDEN          CLEAR     25  19  78 S6        30.49R WCI  18
PROVO AIRPORT  PTCLDY    21  18  86 CALM      30.51R
SALT LAKE CITY CLEAR     26  20  77 S5        30.50R WCI  20
VERNAL         PTCLDY    20  12  71 NW3       30.41F
WENDOVER       CLEAR     23  19  86 NE6       30.48R WCI  16
HEBER CITY     PTCLDY    14  10  85 CALM      30.47R
WEST JORDAN    CLEAR     21  18  86 CALM      30.50R

$$

UTZ012>022-026-027-241000-

SOUTHERN/CENTRAL UTAH

CITY           SKY/WX    TMP DP  RH WIND       PRES   REMARKS
BLANDING       CLEAR     25  14  62 NW3       30.39S
BRYCE CANYON   PTCLDY    17  11  77 N6        30.38S WCI   9
CEDAR CITY     PTCLDY    23  16  74 N7        30.43R WCI  15
DELTA          CLEAR     23  19  85 N8        30.47R WCI  13
MILFORD        CLEAR     24  17  74 CALM      30.44F
MOAB/CYNLANDS  CLEAR     26  16  65 CALM      30.36F
PRICE          CLEAR     27  14  58 SE8       30.36S WCI  19
ST GEORGE      MOSUNNY   45  18  33 NE15G23   30.38R
KANAB          CLEAR     34  14  44 N10       30.39R WCI  26

$$

REGIONAL REPORTS     COLORADO/ARIZONA

CITY           SKY/WX    TMP DP  RH WIND       PRES   REMARKS
CRAIG, CO        N/A    N/A N/A N/A MISG      30.39R
GRAND JUNCTION CLEAR     24  13  62 SE8       30.34F WCI  15
RIFLE          PTCLDY    19  11  70 CALM      30.36F
MONTROSE       PTCLDY    21   9  59 SE10      30.40F WCI  10
CORTEZ         CLEAR     18  14  84 CALM      30.33F
PAGE, AZ       NOT AVBL
GRAND CANYON   PTCLDY    35   7  31 NE15G23   30.31S WCI  25
KINGMAN        CLEAR     36  12  37 E9        30.26S WCI  29
FLAGSTAFF      CLEAR     33   5  30 E12       30.29S WCI  24

$$

REGIONAL REPORTS    NEVADA/IDAHO/WYOMING

CITY           SKY/WX    TMP DP  RH WIND       PRES   REMARKS
LAS VEGAS, NV  CLEAR     48  17  29 E5        30.27F
ELY            CLEAR     23  19  85 NW5       30.46F WCI  17
ELKO           CLEAR     24  20  84 E3        30.48F
POCATELLO, ID  CLOUDY    29  27  92 SW7       30.51R WCI  22
BURLEY         CLOUDY    29  27  92 SW5       30.48R FOG     WCI  24
EVANSTON, WY   PTCLDY    16  13  88 SW10      30.40R WCI   4
ROCK SPRINGS   MOCLDY    22  17  81 SW16      30.35R WCI   8

$$


USA.gov is the U.S. government's official web portal to all federal, state and local government web resources and services.